Probability
1 1 0 0 0 0 0 0 0 0 0 0 0 0 0 0 0 0 0 0 0 1 2 1 0 0 1 2 3 3 3 2 1 0 0 0 0 0 0 0 1 1 2 2 1 0 0 0 0
1 0 0 0 0 0 0 0 0 0 0 0 0 0 0 0 0 0 0 0 0 1 2 2 1 1 1 2 3 3 3 2 1 0 0 0 0 0 1 1 1 1 1 1 0 0 0 0 0
0 0 0 0 0 0 0 0 0 0 0 0 0 0 0 0 0 0 0 0 0 1 2 3 2 2 2 2 2 3 2 1 0 0 0 0 0 0 1 2 2 1 0 0 0 0 0 0 0
0 0 0 0 0 0 0 0 0 0 0 0 0 0 0 0 0 0 0 0 0 1 3 3 3 2 3 2 2 2 2 1 0 0 0 0 0 0 1 1 1 0 0 0 0 0 0 0 0
0 0 0 0 0 0 0 0 0 0 0 0 0 0 0 0 0 0 0 0 1 2 3 3 3 3 3 3 3 3 3 2 1 1 0 0 0 0 0 0 0 0 0 0 0 0 0 0 0
0 0 0 0 0 0 0 0 0 0 0 0 0 0 0 0 0 0 0 1 2 3 3 3 3 3 3 3 3 3 3 3 2 1 0 0 0 0 0 0 0 0 0 0 0 0 0 0 0
0 0 0 0 0 0 0 0 0 0 0 0 0 0 0 0 0 0 1 2 3 3 3 3 2 2 2 2 2 1 1 2 2 1 0 0 0 0 0 0 0 0 0 0 0 0 0 0 0
0 0 0 0 0 0 0 0 0 0 0 0 0 0 0 0 0 0 1 3 3 3 3 3 1 1 1 1 1 0 0 1 1 0 0 0 0 0 0 0 0 0 0 0 0 0 0 1 1
0 0 0 0 0 0 0 0 0 0 0 0 0 0 0 0 0 1 2 3 3 3 3 3 1 1 1 1 0 0 0 0 0 0 0 0 0 0 0 0 0 0 0 0 0 0 0 0 0
0 0 0 0 0 0 0 0 0 0 0 0 0 0 0 0 1 2 3 3 3 3 3 3 2 2 2 2 1 1 0 0 0 0 0 0 0 0 0 0 0 0 0 0 0 0 0 0 0
0 0 0 0 0 0 0 0 0 0 0 0 0 0 0 0 1 2 3 3 3 3 3 3 3 3 3 3 3 2 1 0 0 0 0 0 0 0 0 0 0 0 0 0 0 0 0 0 0
0 0 0 0 0 0 0 0 0 0 0 0 0 0 0 0 0 1 3 3 3 3 3 3 3 3 3 3 3 3 1 0 0 0 0 0 0 0 0 0 0 0 0 0 0 0 0 0 0
0 0 0 0 0 0 0 0 0 0 0 0 0 0 0 0 0 1 2 3 3 3 3 3 3 3 3 3 3 3 2 1 0 0 0 0 0 0 0 0 0 0 0 0 0 0 0 0 0
0 0 0 0 0 0 0 0 0 0 0 0 0 0 0 0 0 0 1 2 2 3 3 3 3 3 3 3 3 3 2 1 0 0 0 0 0 0 0 0 0 0 0 0 0 0 0 0 0
0 0 0 0 0 0 0 0 0 0 0 0 0 0 0 0 0 0 0 1 1 1 3 3 3 3 3 3 3 3 2 1 0 0 0 0 0 0 0 0 0 0 0 0 0 0 0 0 0
0 0 0 0 0 0 0 0 0 0 0 0 0 0 0 0 0 0 0 0 0 1 2 3 3 3 3 3 3 3 2 1 0 0 0 0 0 0 0 0 0 0 0 0 0 0 0 0 0
0 0 0 0 0 0 0 0 0 0 0 0 0 0 0 0 0 0 0 0 0 1 2 3 3 3 3 3 3 3 2 1 0 0 0 0 0 0 0 0 0 0 0 0 0 0 0 0 0
0 0 0 0 0 0 0 0 0 0 0 0 0 0 0 0 0 0 0 0 0 1 3 3 3 3 3 3 3 3 1 0 0 0 0 0 0 0 0 0 0 0 0 0 0 0 0 0 0
0 0 0 0 0 0 0 0 0 0 0 0 0 0 0 0 0 0 0 0 1 2 3 3 3 3 3 3 3 3 1 0 0 0 0 0 0 0 0 0 0 0 0 0 0 0 0 0 0
0 0 0 0 0 0 0 0 0 0 0 0 0 0 0 0 0 0 0 0 1 2 3 3 3 3 3 3 4 3 2 0 0 0 0 0 0 0 0 0 0 0 0 0 0 0 0 0 0
0 0 0 0 0 0 0 0 0 0 0 0 0 0 0 0 0 0 0 0 1 2 3 3 3 3 3 4 5 4 2 0 0 0 0 0 0 0 0 0 0 0 0 0 0 0 0 0 0
0 0 0 0 0 0 0 0 0 0 0 0 0 0 0 0 0 0 0 0 0 1 2 3 3 3 3 4 5 5 3 1 0 0 0 0 0 0 0 0 0 0 0 0 0 0 0 0 0
0 0 0 0 0 0 0 0 0 0 0 0 0 0 0 0 0 0 0 0 0 0 1 2 3 3 3 4 6 6 5 3 1 0 0 0 0 0 0 0 0 0 0 0 0 0 0 0 0
0 0 0 0 0 0 0 0 0 0 0 0 0 0 0 0 0 0 0 0 0 0 0 1 2 3 4 5 6 6 6 3 1 0 0 0 0 0 0 0 0 0 0 0 0 0 0 0 0
0 0 0 0 0 0 0 0 0 0 0 0 0 0 0 0 0 0 0 0 0 0 0 0 1 2 4 5 6 6 5 3 1 0 0 0 0 0 0 0 0 0 0 0 0 0 0 0 0
0 0 0 0 0 0 0 0 0 0 0 0 0 0 0 0 0 0 0 0 0 0 0 0 0 1 2 3 4 4 4 3 1 0 0 0 0 0 0 0 0 0 0 0 0 0 0 0 0
0 0 0 0 0 0 0 0 0 0 0 0 0 0 0 0 0 0 0 0 0 0 0 0 0 0 1 1 2 2 2 1 1 0 0 0 0 0 0 0 0 0 0 0 0 0 0 0 0
0 0 0 0 0 0 0 0 0 0 0 0 0 0 0 0 0 0 0 0 0 0 0 0 0 0 0 0 1 1 1 0 0 0 0 0 0 0 0 0 0 0 0 0 0 0 0 0 0
0 0 0 0 0 0 0 0 0 0 0 0 0 0 0 0 0 0 0 0 0 0 0 0 0 0 0 0 0 0 0 0 0 0 0 0 0 0 0 0 0 0 0 0 0 0 0 0 0
0 0 0 0 0 0 0 0 0 0 0 0 0 0 0 0 0 0 0 0 0 0 0 0 0 0 0 0 0 0 0 0 0 0 0 0 0 0 0 0 0 0 0 0 0 0 0 0 0
Wind_Speed
7 3 2 4 5 3 2 3 2 1 1 1 1 3 5 4 3 2 1 2 3 3 2 4 7 8 8 7 7 7 7 7 7 7 7 7 8 8 7 8 8 8 8 9 9 10 10 10 10
2 2 4 5 4 1 4 3 3 2 2 2 3 3 4 2 2 2 1 1 3 4 3 3 7 8 8 7 7 7 7 7 7 7 7 6 7 7 7 7 7 7 8 8 9 9 10 9 9
1 3 4 4 3 5 4 3 3 1 2 2 3 3 2 2 2 1 1 2 4 4 4 4 7 8 7 7 7 6 7 7 6 6 6 6 7 7 7 7 7 7 7 8 8 8 9 8 8
2 4 5 4 3 3 3 1 2 2 2 3 3 3 2 3 1 1 2 4 5 4 4 4 7 7 7 7 7 6 6 6 6 7 6 7 7 7 7 7 7 7 7 7 8 8 8 8 8
4 4 4 0 3 2 2 1 2 2 1 2 3 3 1 3 3 4 4 5 5 4 3 4 7 7 7 7 6 7 6 6 7 7 7 7 7 7 7 7 7 7 7 7 7 7 7 7 7
4 4 3 4 4 2 2 1 1 2 1 2 3 3 1 2 3 3 4 4 4 4 4 4 6 7 7 7 7 7 7 7 7 7 7 7 7 7 7 7 6 6 6 7 6 6 6 7 7
4 4 3 4 2 2 2 0 2 2 1 1 2 3 1 1 2 3 4 5 5 5 4 4 3 5 7 7 7 7 7 7 7 7 7 7 7 7 7 7 6 6 6 6 6 6 6 7 6
4 4 2 2 3 3 1 1 1 2 2 1 2 4 2 1 2 4 5 5 5 5 4 3 3 3 3 4 6 7 7 7 7 7 7 6 6 6 7 6 6 6 6 6 6 6 6 6 6
3 4 3 4 4 2 1 1 1 2 3 2 2 1 1 4 5 5 4 4 4 4 3 3 3 3 3 3 4 5 6 6 6 5 6 5 3 3 4 5 6 6 7 6 6 6 6 6 6
3 3 6 2 2 2 1 1 2 2 2 1 2 3 3 4 5 5 3 2 1 1 1 1 2 2 2 2 2 2 3 3 3 3 3 2 2 2 4 5 7 7 7 6 6 7 6 5 3
2 3 2 1 0 1 1 1 1 3 2 3 3 2 3 3 3 3 2 1 1 1 1 1 1 1 2 2 1 1 1 2 2 3 2 2 2 2 3 2 3 4 5 4 4 5 3 3 2
2 1 0 1 2 1 1 1 1 1 3 1 2 4 4 3 3 3 2 1 0 0 0 0 1 1 1 1 1 1 1 1 1 1 2 2 2 2 2 1 2 2 2 2 2 2 3 3 3
1 1 2 2 3 2 2 1 1 1 1 1 3 4 3 3 2 1 1 1 1 1 1 0 1 1 1 1 1 1 1 1 1 1 1 2 2 1 1 1 1 1 1 1 2 2 2 3 3
1 1 2 2 2 2 1 1 0 3 1 2 3 2 2 1 1 0 0 1 1 1 1 0 1 1 2 1 1 1 1 1 1 1 1 2 1 1 1 1 1 1 1 1 1 1 1 2 2
1 2 3 2 1 0 1 3 3 2 2 1 0 1 1 1 1 1 2 2 2 1 1 1 1 1 2 1 1 1 1 1 1 1 1 1 1 1 1 1 1 0 0 1 1 2 1 1 2
3 2 2 3 1 1 1 7 3 1 2 1 2 1 1 2 2 2 1 1 1 1 0 0 1 1 1 1 1 1 1 1 1 1 1 1 1 1 1 1 0 0 0 1 1 1 2 1 1
2 1 3 4 1 0 2 6 3 1 2 2 3 2 2 2 2 2 1 1 1 1 1 1 1 1 1 1 1 1 1 1 1 1 1 0 0 1 1 1 0 1 1 1 1 1 1 1 2
3 2 2 4 2 0 3 7 5 2 3 4 3 3 3 3 4 2 1 0 0 1 1 1 1 1 1 1 1 1 1 1 0 0 0 0 0 1 1 1 0 1 1 1 1 1 1 1 1
3 3 3 4 2 2 5 8 7 4 3 4 4 4 4 4 3 1 0 0 1 1 1 0 1 0 1 1 1 1 1 0 0 0 1 0 0 0 1 0 0 0 1 1 1 0 1 1 1
0 1 3 3 2 1 4 8 7 5 5 5 5 5 4 3 2 2 1 1 1 1 1 1 1 1 1 1 1 1 1 0 0 1 1 1 1 0 1 1 1 1 1 1 1 1 1 0 1
3 3 3 3 4 2 4 7 4 3 2 3 3 4 3 4 3 2 1 1 0 1 1 1 1 1 0 0 1 1 1 1 0 1 1 2 1 1 1 1 1 1 2 2 2 2 2 1 1
4 2 2 2 1 3 1 5 6 3 3 4 5 4 4 3 3 2 2 1 1 2 1 1 1 0 0 1 1 2 1 1 1 1 1 1 1 1 1 1 1 2 2 2 2 2 2 2 1
2 0 0 1 2 2 1 3 8 2 4 7 6 6 5 4 3 2 2 2 1 0 0 1 1 0 0 1 2 2 1 1 1 1 1 1 1 1 1 1 1 1 1 2 2 2 2 2 2
2 3 3 3 2 3 4 5 8 4 6 5 4 4 4 3 2 2 1 0 1 1 1 1 0 1 1 1 1 2 2 2 1 1 1 1 1 1 1 1 1 1 1 2 2 2 2 2 2
2 3 3 4 2 6 2 5 10 6 4 4 5 5 3 2 2 2 1 1 0 0 0 1 0 1 1 1 1 2 2 3 3 2 2 2 1 2 2 2 2 2 2 2 2 2 2 2 2
4 4 5 5 5 5 2 8 8 4 3 3 3 3 2 2 2 2 2 1 1 1 1 1 1 1 1 1 1 1 1 1 2 2 2 2 2 2 2 2 2 2 2 2 2 2 2 2 2
4 3 2 4 1 3 6 7 9 2 2 2 2 1 2 3 3 2 2 1 1 1 1 1 1 2 1 1 1 1 1 1 1 1 1 1 1 2 2 2 2 2 2 2 2 2 2 2 3
2 5 3 4 3 4 6 5 6 3 4 3 2 2 3 2 3 2 2 2 1 1 1 1 1 2 2 1 1 1 1 1 1 1 1 1 2 1 2 2 2 2 3 2 2 2 2 2 3
3 3 3 3 3 4 5 8 5 5 4 4 4 4 4 3 3 3 2 2 1 1 1 1 1 1 1 1 2 1 1 1 1 1 1 1 1 1 2 2 2 2 3 2 2 3 3 3 3
3 5 6 5 5 4 4 9 2 3 3 3 4 3 3 3 3 2 2 1 1 1 1 1 1 2 2 1 1 1 1 1 1 1 1 1 1 1 2 2 2 2 3 2 2 3 3 3 3
Wind_Direction
338 355 52 56 58 59 223 240 204 163 122 49 60 94 114 119 137 155 60 89 87 101 98 108 112 110 106 101 95 95 96 94 94 96 94 91 88 84 80 76 71 70 67 64 62 61 61 62 60
333 15 55 62 100 174 251 235 199 193 154 112 65 72 74 68 49 85 59 64 101 103 87 91 103 107 105 101 98 94 94 93 91 92 93 91 88 83 80 75 70 71 70 67 65 63 62 62 61
341 54 85 86 139 188 217 212 191 88 84 89 70 52 77 72 59 78 18 113 95 90 78 86 96 98 98 99 99 95 92 90 89 89 88 87 86 82 77 74 70 67 67 67 67 65 62 62 64
74 52 60 88 212 221 224 207 148 116 64 59 102 74 49 29 35 87 98 108 97 87 81 93 94 97 96 92 89 92 94 91 86 83 84 82 79 76 75 71 70 68 69 69 68 66 61 58 60
60 79 77 35 240 256 265 269 155 115 101 71 104 105 58 8 39 83 100 103 105 91 76 88 91 92 95 92 87 78 82 84 83 80 77 77 73 70 73 72 69 66 69 70 66 63 58 53 54
64 73 111 220 244 271 286 287 126 105 105 91 101 107 98 46 54 68 84 88 94 96 78 76 82 82 85 86 79 78 75 73 72 75 71 67 67 65 66 66 66 64 64 65 63 59 55 49 48
110 113 175 204 228 260 271 111 139 152 139 181 149 119 117 69 55 78 80 79 74 72 73 69 70 72 76 79 77 74 72 69 66 65 66 60 59 59 58 55 57 55 55 59 59 54 51 49 47
119 112 150 201 205 240 261 100 107 146 170 55 113 140 172 196 89 83 78 76 70 60 60 66 67 65 68 76 80 76 73 70 68 63 60 60 55 57 57 50 48 52 53 54 54 52 52 47 46
86 93 208 214 197 228 143 113 25 41 94 54 46 101 98 117 108 93 78 61 55 49 44 54 67 64 63 71 82 79 74 70 69 62 58 61 57 60 59 48 46 48 50 51 51 49 49 48 45
86 165 223 221 180 189 181 160 156 82 51 36 32 42 85 115 122 116 109 101 81 40 26 50 67 71 67 66 67 75 76 71 66 64 65 59 59 56 57 46 45 43 44 45 45 45 44 42 35
112 190 231 288 22 121 127 107 115 139 237 228 202 168 126 125 125 132 139 153 191 181 42 43 66 84 91 86 78 72 70 72 67 63 66 68 63 58 56 53 40 36 38 38 31 32 30 27 23
105 315 310 346 26 51 121 112 70 164 230 232 162 146 141 145 159 173 178 191 188 87 296 61 73 82 97 102 98 93 88 83 78 73 70 80 74 63 64 64 50 44 34 34 31 28 22 17 14
93 307 12 18 33 46 59 63 140 271 296 65 102 114 137 162 181 197 192 185 168 198 260 265 131 117 113 116 124 110 120 112 106 92 80 85 96 81 70 73 69 53 42 39 35 30 19 14 10
178 25 348 354 11 13 43 335 352 262 86 91 109 126 146 162 175 161 194 235 224 221 221 198 159 136 121 127 139 143 133 121 116 109 106 104 111 111 106 95 74 46 42 44 51 43 20 8 11
82 36 354 337 337 300 51 314 244 233 120 108 151 193 174 213 186 208 219 228 235 229 195 162 165 131 125 134 152 132 115 114 116 110 108 117 121 139 136 133 105 47 37 65 55 38 37 27 18
51 51 315 305 349 343 119 264 270 149 156 218 240 247 253 262 245 248 237 226 223 178 189 177 137 133 138 141 151 119 104 112 105 91 91 108 112 124 134 122 117 11 59 63 69 45 26 17 11
42 230 254 296 326 44 177 254 279 192 187 240 251 250 251 272 283 289 288 239 191 166 174 176 137 154 165 155 131 119 113 105 110 115 98 86 88 108 141 127 153 122 89 61 56 41 35 2 346
218 219 245 256 288 165 242 260 278 265 233 249 257 256 254 260 268 282 291 271 148 136 146 155 127 147 163 147 110 100 87 83 88 113 105 94 89 108 151 138 120 124 112 77 51 46 27 3 327
166 182 243 263 288 260 247 263 270 260 246 253 256 251 253 264 285 291 264 117 107 95 106 135 133 150 157 172 175 181 207 253 5 10 38 63 77 112 151 152 156 131 167 194 197 110 52 11 354
146 230 262 290 328 284 281 278 268 245 231 229 235 239 244 276 322 327 351 77 142 179 185 174 193 209 217 217 205 191 182 172 113 26 4 350 327 248 189 181 207 218 204 182 186 146 152 12 30
257 222 238 270 325 328 319 298 274 271 244 248 242 237 238 233 244 260 277 265 229 223 223 215 221 232 247 218 146 105 81 47 16 347 332 337 339 327 284 214 207 216 211 203 209 193 181 200 236
253 244 226 248 314 298 4 291 284 275 284 263 253 245 244 243 238 239 240 251 247 245 238 226 224 242 218 158 147 155 171 219 248 261 273 321 333 332 320 292 230 218 221 219 214 208 216 191 205
215 73 152 250 193 290 262 242 284 328 283 266 251 240 241 240 231 233 234 229 253 290 258 247 207 227 208 176 174 171 175 207 248 288 292 302 305 302 296 298 270 255 246 225 214 214 221 210 205
121 68 49 45 75 264 226 202 274 241 240 264 252 239 234 230 234 241 259 215 31 33 19 1 190 240 226 202 192 185 184 182 186 270 281 280 284 287 283 273 258 259 265 247 227 212 213 224 221
95 94 33 355 340 255 215 215 250 247 239 240 253 247 235 216 214 224 241 251 278 1 337 316 267 265 242 216 221 211 206 197 203 222 240 265 277 270 266 261 254 251 254 255 254 236 222 226 227
190 158 164 205 237 276 262 237 251 256 269 272 259 246 221 213 215 217 228 237 248 256 274 286 265 273 260 233 246 237 221 211 222 229 235 240 252 258 272 261 259 258 251 242 235 240 238 229 228
154 195 162 131 94 279 264 276 292 269 306 308 294 294 234 223 222 227 230 227 235 239 241 242 259 287 279 263 261 249 233 223 235 243 236 243 258 271 280 270 263 261 253 237 226 230 235 230 230
161 149 119 143 178 261 282 265 254 265 265 281 286 268 265 249 238 234 230 232 238 241 263 267 253 264 284 287 272 274 258 250 238 227 254 271 276 274 267 265 264 265 254 240 229 241 241 235 242
145 152 151 153 177 188 266 269 225 219 225 236 248 253 255 246 238 234 234 237 243 277 275 279 289 300 305 302 303 292 280 273 254 245 259 266 274 274 268 261 258 258 254 242 231 242 242 236 246
192 187 164 175 223 208 236 269 281 231 241 229 244 253 256 243 237 234 231 239 251 269 279 274 275 274 272 276 283 289 309 318 303 285 280 279 279 279 273 263 260 260 257 247 238 243 242 241 244